Regional Weather Roundup
Issued by NWS San Diego, CA

Home | Current Version | Previous Version | Text Only | Print | Product List | Glossary On
Versions: 1 2 3 4 5 6 7 8 9 10 11 12 13 14 15 16 17 18 19 20 21 22 23 24 25 26 27 28 29 30 31 32 33 34 35 36 37 38 39 40 41 42 43 44 45 46 47 48 49 50
000
ASUS46 KSGX 312211
RWRSGX

SAN DIEGO HOURLY WEATHER ROUNDUP
NATIONAL WEATHER SERVICE SAN DIEGO CA
300 PM PDT FRI JUL 31 2015

NOTE: "FAIR" INDICATES FEW OR NO CLOUDS BELOW 12,000 FEET WITH NO
SIGNIFICANT WEATHER AND/OR OBSTRUCTIONS TO VISIBILITY.

CAZ042-043-060-061-PZZ750-775-312300-

GREATER SAN DIEGO AREA

CITY           SKY/WX    TMP DP  RH WIND       PRES   REMARKS
LINDBERGH FLD  PTSUNNY   78  64  61 NW12      29.99F
POINT LOMA       N/A     76  64  67 NW18        N/A
NATIONAL CITY    N/A     79  69  70 SW2       29.98F
CHULA VISTA      N/A     78  69  75 W10       29.92S
IMPERIAL BEACH PTSUNNY   77  65  66 W13       29.99F
BROWN FIELD    PTSUNNY   77  65  66 NW8       29.98F
MIRAMAR MCAS   PTSUNNY   82  63  52 NW12      29.98F
MONTGOMERY FLD PTSUNNY   81  65  58 W8        29.98F

$$

NORTH SAN DIEGO COUNTY

CITY           SKY/WX    TMP DP  RH WIND       PRES   REMARKS
CAMP PENDLETON PTSUNNY   79  63  57 SW8G17    29.96F
OCEANSIDE AP   MOSUNNY   77  65  66 SW14      29.97F
OCEANSIDE HBR    N/A     72  67  84 W13       30.01F
VISTA            N/A     80  68  65 W8        29.95F
CARLSBAD       MOSUNNY   75  65  70 W8        29.98F
DEL MAR          N/A     75  67  76 CALM      30.00F
FALLBROOK        N/A     88  63  43 SW7       29.95F
ESCONDIDO        N/A     88  68  52 W13       29.98F
POWAY            N/A     85  68  55 SW7       29.96F

$$

EAST SAN DIEGO COUNTY

CITY           SKY/WX    TMP DP  RH WIND       PRES   REMARKS
RAMONA         PTSUNNY   92  65  40 NW13      30.00F
SANTEE LAKES     N/A     85  68  56 W9        29.94F
LA MESA          N/A     83  68  59 W7        29.90F
JAMUL            N/A     88  70  55 SW3       29.94F
DESCANSO N       N/A     84  58  40 W5        29.85F
CAMPO            N/A     92  39  15 W7        30.03F

$$

ORANGE COUNTY AND THE LOS ANGELES BASIN

CITY           SKY/WX    TMP DP  RH WIND       PRES   REMARKS
JOHN WAYNE AP  PTSUNNY   80  66  62 SW8       29.97F
LAKE FOREST FR   N/A     89  64  43 SW1       29.86F
SANTA ANA        N/A     88  70  55 SW2       29.91F
HUNTINGTON BCH   N/A     78  70  75 SW3       29.99F
LOS ALAMITOS   PTSUNNY   81  68  64 SW10      29.97F
FULLERTON      SUNNY     86  66  51 S7        29.95F
LONG BEACH     SUNNY     84  66  54 S8        29.96F
L.A. AP        MOSUNNY   75  65  70 W12       29.99F

$$

THE INLAND EMPIRE

CITY           SKY/WX    TMP DP  RH WIND       PRES   REMARKS
CORONA         MOSUNNY   94  65  38 W13       29.95F HX  96
CHINO          PTSUNNY   98  60  28 W10       29.96F HX  98
ONTARIO        PTSUNNY   95  61  32 SW13G20   29.96F HX  95
SAN BERNARDINO PTSUNNY   93  57  29 W6        29.97R
RIVERSIDE AP   PTSUNNY   95  62  33 VRB6      29.95F HX  96
MORENO VALLEY    N/A     91  69  46 CALM      29.96F HX  96
MARCH ARB      PTSUNNY   92  65  40 NW8       29.99F
HORSETHIEF CYN   N/A     94  58  30 NW8       29.96F
PERRIS           N/A     92  64  39 W5        29.97F
MENIFEE          N/A     95  59  29 S5        30.03F
HEMET EAST       N/A     89  53  28 CALM      29.97F
FRENCH VALLEY  FAIR      91  61  35 S13       30.00F
TEMECULA         N/A     90  62  39 SW8       29.94F

$$

SAN BERNARDINO AND RIVERSIDE COUNTY MOUNTAINS

CITY           SKY/WX    TMP DP  RH WIND       PRES   REMARKS
BIG BEAR AP    CLOUDY    70  55  60 W6        30.35F
ANGELUS OAKS     N/A     74  62  64 CALM      29.90F
PINE COVE        N/A     71  59  66 NW3       29.98F

$$

SOUTHERN DESERT INCLUDING THE COACHELLA VALLEY

CITY           SKY/WX    TMP DP  RH WIND       PRES   REMARKS
PALM SPRINGS   PTSUNNY  108  62  22 NW15      29.86F HX 110
THOUSAND PALMS   N/A    106  62  23 S3        29.82F HX 108
THERMAL        MOSUNNY  109  53  15 SE12      29.78F HX 107
BLYTHE         SUNNY    108  60  21 W10       29.84F HX 109
IMPERIAL AP    SUNNY    108  47  13 S6        29.81F HX 104
EL CENTRO NAS  PTSUNNY  109  44  11 VRB3      29.83F HX 104
YUMA AZ        CLOUDY   110  57  17 W7        29.83F HX 110
MEXICALI       PTSUNNY  108  45  12 W6        29.84F HX 103

$$

UPPER DESERT

CITY           SKY/WX    TMP DP  RH WIND       PRES   REMARKS
VICTORVILLE AP CLOUDY    93  55  27 S14       30.04F
HESPERIA         N/A     89  61  38 W5        30.01F
APPLE VALLEY     N/A     91  57  32 S7G20     30.06S
PALMDALE       MOSUNNY   94  58  29 SW14G22   30.02F
LANCASTER      SUNNY     97  59  28 SW14G23   30.01F HX  96
EDWARDS AFB    PTSUNNY  100  50  18 VRB6      29.96F HX  97
DAGGETT        MOSUNNY  102  52  18 CALM      29.94F HX  99
29 PALMS N     MOSUNNY   99  57  24 SE3       30.03F HX  98
NEEDLES        SUNNY    107  52  16 VRB5      29.87F HX 105

$$

REGIONAL REPORTS

CITY           SKY/WX    TMP DP  RH WIND       PRES   REMARKS
SANTA BARBARA  SUNNY     78  64  61 SW8       29.99F
LAS VEGAS NV   MOSUNNY  103  51  17 N7        29.92F HX 100
PHOENIX AZ     PTSUNNY  108  56  18 S9        29.85F HX 107
TIJUANA        PTSUNNY   77  63  61 NW9       30.01F
ENSENADA NW      N/A     73  32  22 W10       29.96F

$$

OFFSHORE ISLANDS

CITY           SKY/WX    TMP DP  RH WIND       PRES   REMARKS
CATALINA ARPT  SUNNY     74  61  63 SW10      30.05F
SAN CLEMENTE I MOSUNNY   72  60  66 W10       30.02F
SAN NICOLAS IS SUNNY    N/A N/A N/A SW15      30.01F

$$

MARINE AND OFFSHORE BUOY REPORTS

STATION/POSITION SKY/WX   TEMP    WIND        PRES    SWELL
                          AIR SEA DIR/SP/G            HT/PER/DIR
                          (F)     (DEG/KT/KT) (MB)    (FT/S/D)
TANNER BANKS               67 69  290/  8/ 10 1016.7F   3/210/15
S CLEMENTE BASIN           67 71  290/ 12/ 14 1015.6F   3/240/16
SAN NICOLAS IS.               66                N/A     2/190/17
SO. S. ROSA ISLA           66 69  310/ 12/ 14 1015.5F   3/14
W. S. BARBARA CH           64 67  310/ 14/ 14 1015.7F   3/220/14
M. S. BARBARA CH           67 70  250/ 10/ 12 1016.4F
S. MONICA BASIN            69 75  250/  8/ 10 1015.7F   3/210/14
S PEDRO CHANNEL               72                N/A     2/220/15
DANA POINT                    73                N/A     2/210/13
OCEANSIDE OFFSHR              74                N/A     2/220/15
TORREY PINES OTR              74                N/A     3/220/14
LA JOLLA 1                 71 73  310/  7/  8 1015.7F
MISSION BAY BUOY              74                N/A     2/220/14
SAN DIEGO BAY                 76              1016.1F
POINT LOMA SOUTH              72                N/A     3/210/13

$$



USA.gov is the U.S. government's official web portal to all federal, state and local government web resources and services.